Time,TemperatureF,DewpointF,PressureIn,WindDirection,WindDirectionDegrees,WindSpeedMPH,WindSpeedGustMPH,Humidity,HourlyPrecipIn,Conditions,Clouds,dailyrainin,SoftwareType,DateUTC
2013-09-06 00:01:00,64.0,60.5,30.13,ESE,112,0.0,0.0,88,0.00,,,0.00,WUHU21623XXSP,2013-09-06 04:01:00,
2013-09-06 00:02:00,64.0,60.5,30.13,ESE,112,0.0,0.0,88,0.00,,,0.00,WUHU21623XXSP,2013-09-06 04:02:00,
2013-09-06 00:07:00,64.0,60.5,30.13,East,90,0.0,0.0,88,0.00,,,0.00,WUHU21623XXSP,2013-09-06 04:07:00,
2013-09-06 00:12:00,63.7,60.1,30.13,ESE,112,0.0,0.0,88,0.00,,,0.00,WUHU21623XXSP,2013-09-06 04:12:00,
2013-09-06 00:17:00,63.7,60.1,30.13,East,90,0.0,0.0,88,0.00,,,0.00,WUHU21623XXSP,2013-09-06 04:17:00,
2013-09-06 00:22:00,63.5,59.9,30.13,East,90,0.0,0.0,88,0.00,,,0.00,WUHU21623XXSP,2013-09-06 04:22:00,
2013-09-06 00:27:00,63.3,59.8,30.13,ESE,112,0.0,0.0,88,0.00,,,0.00,WUHU21623XXSP,2013-09-06 04:27:00,
2013-09-06 00:32:00,63.3,59.8,30.13,East,90,0.0,0.0,88,0.00,,,0.00,WUHU21623XXSP,2013-09-06 04:32:00,
2013-09-06 00:37:00,63.3,59.8,30.13,ESE,112,0.0,0.0,88,0.00,,,0.00,WUHU21623XXSP,2013-09-06 04:37:00,
2013-09-06 00:42:00,63.1,59.9,30.13,ESE,112,0.0,0.0,89,0.00,,,0.00,WUHU21623XXSP,2013-09-06 04:42:00,
2013-09-06 00:47:00,63.1,59.9,30.14,East,90,0.0,0.0,89,0.00,,,0.00,WUHU21623XXSP,2013-09-06 04:47:00,
2013-09-06 00:52:00,63.1,59.9,30.13,East,90,0.0,0.0,89,0.00,,,0.00,WUHU21623XXSP,2013-09-06 04:52:00,
2013-09-06 00:57:00,63.1,59.9,30.13,ESE,112,0.0,0.0,89,0.00,,,0.00,WUHU21623XXSP,2013-09-06 04:57:00,
2013-09-06 01:02:00,63.1,59.9,30.14,East,90,0.0,0.0,89,0.00,,,0.00,WUHU21623XXSP,2013-09-06 05:02:00,
2013-09-06 01:07:00,63.1,59.9,30.14,East,90,0.0,0.0,89,0.00,,,0.00,WUHU21623XXSP,2013-09-06 05:07:00,
2013-09-06 01:12:00,63.1,59.9,30.14,East,90,0.0,0.0,89,0.00,,,0.00,WUHU21623XXSP,2013-09-06 05:12:00,
2013-09-06 01:17:00,63.1,59.9,30.13,ESE,112,0.0,0.0,89,0.00,,,0.00,WUHU21623XXSP,2013-09-06 05:17:00,
2013-09-06 01:22:00,63.0,59.7,30.13,NNE,22,0.0,0.0,89,0.00,,,0.00,WUHU21623XXSP,2013-09-06 05:22:00,
2013-09-06 01:27:00,62.8,59.6,30.13,ESE,112,0.0,0.0,89,0.00,,,0.00,WUHU21623XXSP,2013-09-06 05:27:00,
2013-09-06 01:32:00,62.8,59.6,30.13,ESE,112,0.0,0.0,89,0.00,,,0.00,WUHU21623XXSP,2013-09-06 05:32:00,
2013-09-06 01:37:00,62.4,59.2,30.13,East,90,0.0,0.0,89,0.00,,,0.00,WUHU21623XXSP,2013-09-06 05:37:00,
2013-09-06 01:42:00,62.4,59.2,30.13,ESE,112,0.0,0.0,89,0.00,,,0.00,WUHU21623XXSP,2013-09-06 05:42:00,
2013-09-06 01:47:00,62.4,59.2,30.13,East,90,0.0,0.0,89,0.00,,,0.00,WUHU21623XXSP,2013-09-06 05:47:00,
2013-09-06 01:52:00,62.6,59.4,30.13,East,90,0.0,0.0,89,0.00,,,0.00,WUHU21623XXSP,2013-09-06 05:52:00,
2013-09-06 01:57:00,62.6,59.4,30.13,East,90,0.0,0.0,89,0.00,,,0.00,WUHU21623XXSP,2013-09-06 05:57:00,
2013-09-06 02:02:00,62.6,59.4,30.13,East,90,0.0,0.0,89,0.00,,,0.00,WUHU21623XXSP,2013-09-06 06:02:00,
2013-09-06 02:07:00,62.6,59.4,30.13,East,90,0.0,0.0,89,0.00,,,0.00,WUHU21623XXSP,2013-09-06 06:07:00,
2013-09-06 02:12:00,62.6,59.4,30.13,East,90,0.0,0.0,89,0.00,,,0.00,WUHU21623XXSP,2013-09-06 06:12:00,
2013-09-06 02:17:00,62.4,59.2,30.13,East,90,0.0,0.0,89,0.00,,,0.00,WUHU21623XXSP,2013-09-06 06:17:00,
2013-09-06 02:22:00,62.4,58.9,30.12,East,90,0.0,0.0,88,0.00,,,0.00,WUHU21623XXSP,2013-09-06 06:22:00,
2013-09-06 02:27:00,62.2,58.7,30.13,NNE,22,0.0,0.0,88,0.00,,,0.00,WUHU21623XXSP,2013-09-06 06:27:00,
2013-09-06 02:32:00,62.2,58.7,30.13,East,90,0.0,0.0,88,0.00,,,0.00,WUHU21623XXSP,2013-09-06 06:32:00,
2013-09-06 02:37:00,62.2,58.7,30.12,East,90,0.0,0.0,88,0.00,,,0.00,WUHU21623XXSP,2013-09-06 06:37:00,
2013-09-06 02:42:00,62.1,58.5,30.12,East,90,0.0,0.0,88,0.00,,,0.00,WUHU21623XXSP,2013-09-06 06:42:00,
2013-09-06 02:47:00,61.9,58.3,30.12,East,90,0.0,0.0,88,0.00,,,0.00,WUHU21623XXSP,2013-09-06 06:47:00,
2013-09-06 02:52:00,61.9,58.3,30.12,East,90,0.0,0.0,88,0.00,,,0.00,WUHU21623XXSP,2013-09-06 06:52:00,
2013-09-06 02:57:00,61.9,58.3,30.12,East,90,0.0,0.0,88,0.00,,,0.00,WUHU21623XXSP,2013-09-06 06:57:00,
2013-09-06 03:02:00,61.9,58.3,30.12,ESE,112,0.0,0.0,88,0.00,,,0.00,WUHU21623XXSP,2013-09-06 07:02:00,
2013-09-06 03:07:00,61.9,58.3,30.12,East,90,0.0,0.0,88,0.00,,,0.00,WUHU21623XXSP,2013-09-06 07:07:00,
2013-09-06 03:12:00,61.9,58.3,30.12,East,90,0.0,0.0,88,0.00,,,0.00,WUHU21623XXSP,2013-09-06 07:12:00,
2013-09-06 03:17:00,61.9,58.3,30.12,East,90,0.0,0.0,88,0.00,,,0.00,WUHU21623XXSP,2013-09-06 07:17:00,
2013-09-06 03:22:00,61.9,58.3,30.12,East,90,0.0,0.0,88,0.00,,,0.00,WUHU21623XXSP,2013-09-06 07:22:00,
2013-09-06 03:27:00,61.9,58.3,30.12,East,90,0.0,0.0,88,0.00,,,0.00,WUHU21623XXSP,2013-09-06 07:27:00,
2013-09-06 03:32:00,61.9,58.3,30.12,East,90,0.0,0.0,88,0.00,,,0.00,WUHU21623XXSP,2013-09-06 07:32:00,
2013-09-06 03:37:00,61.7,58.2,30.12,East,90,0.0,0.0,88,0.00,,,0.00,WUHU21623XXSP,2013-09-06 07:37:00,
2013-09-06 03:42:00,61.5,58.0,30.12,East,90,0.0,0.0,88,0.00,,,0.00,WUHU21623XXSP,2013-09-06 07:42:00,
2013-09-06 03:47:00,61.5,58.0,30.12,East,90,0.0,0.0,88,0.00,,,0.00,WUHU21623XXSP,2013-09-06 07:47:00,
2013-09-06 03:52:00,61.5,58.0,30.12,East,90,0.0,0.0,88,0.00,,,0.00,WUHU21623XXSP,2013-09-06 07:52:00,
2013-09-06 03:57:00,61.5,58.0,30.12,East,90,0.0,0.0,88,0.00,,,0.00,WUHU21623XXSP,2013-09-06 07:57:00,
2013-09-06 04:02:00,61.5,58.0,30.12,East,90,0.0,0.0,88,0.00,,,0.00,WUHU21623XXSP,2013-09-06 08:02:00,
2013-09-06 04:07:00,61.5,58.0,30.12,East,90,0.0,0.0,88,0.00,,,0.00,WUHU21623XXSP,2013-09-06 08:07:00,
2013-09-06 04:12:00,61.5,58.0,30.12,East,90,0.0,0.0,88,0.00,,,0.00,WUHU21623XXSP,2013-09-06 08:12:00,
2013-09-06 04:17:00,61.5,58.0,30.12,East,90,0.0,0.0,88,0.00,,,0.00,WUHU21623XXSP,2013-09-06 08:17:00,
2013-09-06 04:22:00,61.5,58.0,30.12,East,90,0.0,0.0,88,0.00,,,0.00,WUHU21623XXSP,2013-09-06 08:22:00,
2013-09-06 04:27:00,61.5,58.0,30.12,East,90,0.0,0.0,88,0.00,,,0.00,WUHU21623XXSP,2013-09-06 08:27:00,
2013-09-06 04:32:00,61.5,58.0,30.12,East,90,0.0,0.0,88,0.00,,,0.00,WUHU21623XXSP,2013-09-06 08:32:00,
2013-09-06 04:37:00,61.5,58.0,30.12,East,90,0.0,0.0,88,0.00,,,0.00,WUHU21623XXSP,2013-09-06 08:37:00,
2013-09-06 04:42:00,61.5,58.0,30.12,East,90,0.0,0.0,88,0.00,,,0.00,WUHU21623XXSP,2013-09-06 08:42:00,
2013-09-06 04:47:00,61.5,58.0,30.12,East,90,0.0,0.0,88,0.00,,,0.00,WUHU21623XXSP,2013-09-06 08:47:00,
2013-09-06 04:52:00,61.5,58.0,30.11,East,90,0.0,0.0,88,0.00,,,0.00,WUHU21623XXSP,2013-09-06 08:52:00,
2013-09-06 04:57:00,61.5,58.0,30.12,East,90,0.0,0.0,88,0.00,,,0.00,WUHU21623XXSP,2013-09-06 08:57:00,
2013-09-06 05:02:00,61.7,58.0,30.12,East,90,0.0,0.0,88,0.00,,,0.00,WUHU21623XXSP,2013-09-06 09:02:00,
2013-09-06 05:07:00,61.9,58.3,30.12,NNE,22,0.0,0.0,88,0.00,,,0.00,WUHU21623XXSP,2013-09-06 09:07:00,
2013-09-06 05:12:00,62.4,58.9,30.12,NNE,22,0.0,0.0,88,0.00,,,0.00,WUHU21623XXSP,2013-09-06 09:12:00,
2013-09-06 05:17:00,62.4,58.9,30.12,East,90,0.0,0.0,88,0.00,,,0.00,WUHU21623XXSP,2013-09-06 09:17:00,
2013-09-06 05:22:00,62.2,58.7,30.12,East,90,0.0,0.0,88,0.00,,,0.00,WUHU21623XXSP,2013-09-06 09:22:00,
2013-09-06 05:28:00,62.1,58.5,30.12,ESE,112,0.0,0.0,88,0.00,,,0.00,WUHU21623XXSP,2013-09-06 09:28:00,
2013-09-06 05:33:00,61.7,58.2,30.12,East,90,0.0,0.0,88,0.00,,,0.00,WUHU21623XXSP,2013-09-06 09:33:00,
2013-09-06 05:38:00,61.9,58.3,30.12,East,90,0.0,0.0,88,0.00,,,0.00,WUHU21623XXSP,2013-09-06 09:38:00,
2013-09-06 05:43:00,61.9,58.3,30.12,East,90,0.0,0.0,88,0.00,,,0.00,WUHU21623XXSP,2013-09-06 09:43:00,
2013-09-06 05:48:00,62.2,58.7,30.12,East,90,0.0,0.0,88,0.00,,,0.00,WUHU21623XXSP,2013-09-06 09:48:00,
2013-09-06 05:53:00,62.2,58.7,30.12,East,90,0.0,0.0,88,0.00,,,0.00,WUHU21623XXSP,2013-09-06 09:53:00,
2013-09-06 05:58:00,62.4,58.9,30.12,East,90,0.0,0.0,88,0.00,,,0.00,WUHU21623XXSP,2013-09-06 09:58:00,
2013-09-06 06:03:00,62.6,59.0,30.12,NNE,22,0.0,0.0,88,0.00,,,0.00,WUHU21623XXSP,2013-09-06 10:03:00,
2013-09-06 06:08:00,62.8,59.2,30.12,NNE,22,0.0,0.0,88,0.00,,,0.00,WUHU21623XXSP,2013-09-06 10:08:00,
2013-09-06 06:13:00,62.6,59.0,30.12,NNE,22,0.0,0.0,88,0.00,,,0.00,WUHU21623XXSP,2013-09-06 10:13:00,
2013-09-06 06:18:00,62.8,59.2,30.12,NNE,22,0.0,0.0,88,0.00,,,0.00,WUHU21623XXSP,2013-09-06 10:18:00,
2013-09-06 06:23:00,62.8,59.2,30.12,East,90,0.0,0.0,88,0.00,,,0.00,WUHU21623XXSP,2013-09-06 10:23:00,
2013-09-06 06:28:00,62.8,59.2,30.12,East,90,0.0,0.0,88,0.00,,,0.00,WUHU21623XXSP,2013-09-06 10:28:00,
2013-09-06 06:33:00,62.8,59.2,30.12,East,90,0.0,0.0,88,0.00,,,0.00,WUHU21623XXSP,2013-09-06 10:33:00,
2013-09-06 06:38:00,62.8,59.2,30.12,ESE,112,0.0,0.0,88,0.00,,,0.00,WUHU21623XXSP,2013-09-06 10:38:00,
2013-09-06 06:43:00,62.4,58.9,30.13,ESE,112,0.0,0.0,88,0.00,,,0.00,WUHU21623XXSP,2013-09-06 10:43:00,
2013-09-06 06:48:00,62.4,58.9,30.13,ESE,112,0.0,0.0,88,0.00,,,0.00,WUHU21623XXSP,2013-09-06 10:48:00,
2013-09-06 06:53:00,62.4,58.9,30.13,ESE,112,0.0,0.0,88,0.00,,,0.00,WUHU21623XXSP,2013-09-06 10:53:00,
2013-09-06 06:58:00,62.2,58.7,30.13,ESE,112,0.0,0.0,88,0.00,,,0.00,WUHU21623XXSP,2013-09-06 10:58:00,
2013-09-06 07:03:00,62.2,58.7,30.13,East,90,0.0,0.0,88,0.00,,,0.00,WUHU21623XXSP,2013-09-06 11:03:00,
2013-09-06 07:08:00,62.1,58.5,30.13,East,90,0.0,0.0,88,0.00,,,0.00,WUHU21623XXSP,2013-09-06 11:08:00,
2013-09-06 07:13:00,62.2,58.7,30.14,East,90,0.0,0.0,88,0.00,,,0.00,WUHU21623XXSP,2013-09-06 11:13:00,
2013-09-06 07:18:00,62.2,58.7,30.14,East,90,0.0,0.0,88,0.00,,,0.00,WUHU21623XXSP,2013-09-06 11:18:00,
2013-09-06 07:23:00,62.2,58.7,30.14,East,90,0.0,0.0,88,0.00,,,0.00,WUHU21623XXSP,2013-09-06 11:23:00,
2013-09-06 07:28:00,62.2,58.7,30.14,East,90,0.0,0.0,88,0.00,,,0.00,WUHU21623XXSP,2013-09-06 11:28:00,
2013-09-06 07:33:00,62.2,58.7,30.14,East,90,0.0,0.0,88,0.00,,,0.00,WUHU21623XXSP,2013-09-06 11:33:00,
2013-09-06 07:38:00,62.2,58.7,30.14,East,90,0.0,0.0,88,0.00,,,0.00,WUHU21623XXSP,2013-09-06 11:38:00,
2013-09-06 07:43:00,62.4,58.9,30.14,East,90,0.0,0.0,88,0.00,,,0.00,WUHU21623XXSP,2013-09-06 11:43:00,
2013-09-06 07:48:00,62.6,59.0,30.14,East,90,0.0,0.0,88,0.00,,,0.00,WUHU21623XXSP,2013-09-06 11:48:00,
2013-09-06 07:53:00,63.1,59.6,30.14,NNE,22,0.0,0.0,88,0.00,,,0.00,WUHU21623XXSP,2013-09-06 11:53:00,
2013-09-06 07:58:00,64.0,60.5,30.14,NNE,22,0.0,0.0,88,0.00,,,0.00,WUHU21623XXSP,2013-09-06 11:58:00,
2013-09-06 08:03:00,64.6,61.0,30.14,East,90,0.0,0.0,88,0.00,,,0.00,WUHU21623XXSP,2013-09-06 12:03:00,
2013-09-06 08:08:00,64.9,61.3,30.14,NNE,22,0.0,0.0,88,0.00,,,0.00,WUHU21623XXSP,2013-09-06 12:08:00,
2013-09-06 08:13:00,65.3,61.7,30.14,NNE,22,0.0,0.0,88,0.00,,,0.00,WUHU21623XXSP,2013-09-06 12:13:00,
2013-09-06 08:18:00,65.5,61.8,30.14,NNE,22,0.0,0.0,88,0.00,,,0.00,WUHU21623XXSP,2013-09-06 12:18:00,
2013-09-06 08:23:00,65.7,62.0,30.14,East,90,0.0,0.0,88,0.00,,,0.00,WUHU21623XXSP,2013-09-06 12:23:00,
2013-09-06 08:28:00,65.8,62.2,30.14,NNE,22,0.0,0.0,88,0.00,,,0.00,WUHU21623XXSP,2013-09-06 12:28:00,
2013-09-06 08:33:00,65.8,62.2,30.14,NNE,22,0.0,0.0,88,0.00,,,0.00,WUHU21623XXSP,2013-09-06 12:33:00,
2013-09-06 08:38:00,65.8,62.2,30.14,NNE,22,0.0,0.0,88,0.00,,,0.00,WUHU21623XXSP,2013-09-06 12:38:00,
2013-09-06 08:43:00,66.0,62.3,30.14,NNE,22,0.0,0.0,88,0.00,,,0.00,WUHU21623XXSP,2013-09-06 12:43:00,
2013-09-06 08:48:00,66.4,62.7,30.14,NNE,22,0.0,0.0,88,0.00,,,0.00,WUHU21623XXSP,2013-09-06 12:48:00,
2013-09-06 08:53:00,66.7,63.0,30.15,NNE,22,0.0,0.0,88,0.00,,,0.00,WUHU21623XXSP,2013-09-06 12:53:00,
2013-09-06 08:58:00,67.3,63.6,30.15,North,0,0.0,0.0,88,0.00,,,0.00,WUHU21623XXSP,2013-09-06 12:58:00,
2013-09-06 09:03:00,67.6,63.9,30.15,North,0,0.0,0.0,88,0.00,,,0.00,WUHU21623XXSP,2013-09-06 13:03:00,
2013-09-06 09:08:00,67.8,63.8,30.15,North,0,0.0,0.0,87,0.00,,,0.00,WUHU21623XXSP,2013-09-06 13:08:00,
2013-09-06 09:13:00,68.7,64.7,30.15,West,270,0.0,0.0,87,0.00,,,0.00,WUHU21623XXSP,2013-09-06 13:13:00,
2013-09-06 09:18:00,69.1,65.0,30.15,West,270,0.0,0.0,87,0.00,,,0.00,WUHU21623XXSP,2013-09-06 13:18:00,
2013-09-06 09:23:00,69.6,65.5,30.16,North,0,0.0,0.0,87,0.00,,,0.00,WUHU21623XXSP,2013-09-06 13:23:00,
2013-09-06 09:28:00,71.2,66.8,30.16,WNW,292,0.0,0.0,86,0.00,,,0.00,WUHU21623XXSP,2013-09-06 13:28:00,
2013-09-06 09:33:00,71.4,66.7,30.15,WNW,292,0.0,0.0,85,0.00,,,0.00,WUHU21623XXSP,2013-09-06 13:33:00,
2013-09-06 09:38:00,72.3,67.2,30.15,West,270,0.0,0.0,84,0.00,,,0.00,WUHU21623XXSP,2013-09-06 13:38:00,
2013-09-06 09:43:00,73.2,68.1,30.15,North,0,0.0,0.0,84,0.00,,,0.00,WUHU21623XXSP,2013-09-06 13:43:00,
2013-09-06 09:48:00,74.5,68.3,30.15,North,0,0.0,0.0,81,0.00,,,0.00,WUHU21623XXSP,2013-09-06 13:48:00,
2013-09-06 09:53:00,75.4,68.9,30.16,WNW,292,0.0,0.0,80,0.00,,,0.00,WUHU21623XXSP,2013-09-06 13:53:00,
2013-09-06 09:58:00,75.9,68.6,30.15,North,0,0.0,0.0,78,0.00,,,0.00,WUHU21623XXSP,2013-09-06 13:58:00,
2013-09-06 10:03:00,76.3,68.1,30.16,NNE,22,0.0,0.0,76,0.00,,,0.00,WUHU21623XXSP,2013-09-06 14:03:00,
2013-09-06 10:08:00,77.0,68.8,30.16,WNW,292,0.0,0.0,76,0.00,,,0.00,WUHU21623XXSP,2013-09-06 14:08:00,
2013-09-06 10:13:00,77.5,69.0,30.16,North,0,0.0,0.0,75,0.00,,,0.00,WUHU21623XXSP,2013-09-06 14:13:00,
2013-09-06 10:18:00,77.7,68.7,30.16,North,0,0.0,0.0,74,0.00,,,0.00,WUHU21623XXSP,2013-09-06 14:18:00,
2013-09-06 10:24:00,78.3,69.2,30.16,SSW,202,0.0,0.0,74,0.00,,,0.00,WUHU21623XXSP,2013-09-06 14:24:00,
2013-09-06 10:29:00,78.6,69.2,30.16,NNE,22,0.0,0.0,73,0.00,,,0.00,WUHU21623XXSP,2013-09-06 14:29:00,
2013-09-06 10:34:00,79.5,69.3,30.16,North,0,0.0,0.0,71,0.00,,,0.00,WUHU21623XXSP,2013-09-06 14:34:00,
2013-09-06 10:39:00,80.1,69.8,30.16,North,0,0.0,0.0,71,0.00,,,0.00,WUHU21623XXSP,2013-09-06 14:39:00,
2013-09-06 10:44:00,80.4,69.3,30.16,NNE,22,0.0,0.0,69,0.00,,,0.00,WUHU21623XXSP,2013-09-06 14:44:00,
2013-09-06 10:49:00,81.1,69.6,30.16,North,0,0.0,0.0,68,0.00,,,0.00,WUHU21623XXSP,2013-09-06 14:49:00,
2013-09-06 10:54:00,81.3,68.8,30.17,North,0,0.0,0.0,66,0.00,,,0.00,WUHU21623XXSP,2013-09-06 14:54:00,
2013-09-06 10:59:00,81.1,68.2,30.16,East,90,0.0,0.0,65,0.00,,,0.00,WUHU21623XXSP,2013-09-06 14:59:00,
2013-09-06 11:04:00,81.1,68.2,30.17,North,0,0.0,0.0,65,0.00,,,0.00,WUHU21623XXSP,2013-09-06 15:04:00,
2013-09-06 11:09:00,82.0,68.6,30.17,NNE,22,0.0,0.0,64,0.00,,,0.00,WUHU21623XXSP,2013-09-06 15:09:00,
2013-09-06 11:14:00,82.2,67.4,30.17,East,90,0.0,0.0,61,0.00,,,0.00,WUHU21623XXSP,2013-09-06 15:14:00,
2013-09-06 11:19:00,82.0,68.1,30.17,East,90,0.0,0.0,63,0.00,,,0.00,WUHU21623XXSP,2013-09-06 15:19:00,
2013-09-06 11:24:00,82.9,68.1,30.17,ESE,112,0.0,0.0,61,0.00,,,0.00,WUHU21623XXSP,2013-09-06 15:24:00,
2013-09-06 11:29:00,82.9,67.6,30.16,East,90,0.0,0.0,60,0.00,,,0.00,WUHU21623XXSP,2013-09-06 15:29:00,
2013-09-06 11:34:00,83.5,68.2,30.16,South,180,0.0,0.0,60,0.00,,,0.00,WUHU21623XXSP,2013-09-06 15:34:00,
2013-09-06 11:39:00,84.0,68.2,30.16,ESE,112,0.0,0.0,59,0.00,,,0.00,WUHU21623XXSP,2013-09-06 15:39:00,
2013-09-06 11:44:00,84.4,67.5,30.16,South,180,0.0,0.0,57,0.00,,,0.00,WUHU21623XXSP,2013-09-06 15:44:00,
2013-09-06 11:49:00,84.4,68.0,30.16,East,90,0.0,0.0,58,0.00,,,0.00,WUHU21623XXSP,2013-09-06 15:49:00,
2013-09-06 11:54:00,84.2,67.3,30.16,West,270,0.0,0.0,57,0.00,,,0.00,WUHU21623XXSP,2013-09-06 15:54:00,
2013-09-06 11:59:00,84.9,68.5,30.15,NNE,22,0.0,0.0,58,0.00,,,0.00,WUHU21623XXSP,2013-09-06 15:59:00,
2013-09-06 12:04:00,85.6,68.1,30.16,NNE,22,0.0,0.0,56,0.00,,,0.00,WUHU21623XXSP,2013-09-06 16:04:00,
2013-09-06 12:09:00,85.6,67.1,30.15,NNE,22,0.0,0.0,54,0.00,,,0.00,WUHU21623XXSP,2013-09-06 16:09:00,
2013-09-06 12:14:00,85.6,67.6,30.15,East,90,0.0,0.0,55,0.00,,,0.00,WUHU21623XXSP,2013-09-06 16:14:00,
2013-09-06 12:19:00,85.8,67.2,30.15,NNE,22,0.0,0.0,54,0.00,,,0.00,WUHU21623XXSP,2013-09-06 16:19:00,
2013-09-06 12:24:00,86.2,67.6,30.16,NNE,22,0.0,0.0,54,0.00,,,0.00,WUHU21623XXSP,2013-09-06 16:24:00,
2013-09-06 12:29:00,86.5,66.8,30.15,North,0,0.0,0.0,52,0.00,,,0.00,WUHU21623XXSP,2013-09-06 16:29:00,
2013-09-06 12:34:00,86.4,67.2,30.15,NNE,22,0.0,0.0,53,0.00,,,0.00,WUHU21623XXSP,2013-09-06 16:34:00,
2013-09-06 12:39:00,86.5,66.8,30.15,North,0,0.0,0.0,52,0.00,,,0.00,WUHU21623XXSP,2013-09-06 16:39:00,
2013-09-06 12:44:00,86.2,66.5,30.14,South,180,0.0,0.0,52,0.00,,,0.00,WUHU21623XXSP,2013-09-06 16:44:00,
2013-09-06 12:49:00,86.0,65.3,30.14,East,90,0.0,0.0,50,0.00,,,0.00,WUHU21623XXSP,2013-09-06 16:49:00,
2013-09-06 12:54:00,86.0,65.8,30.14,ESE,112,0.0,0.0,51,0.00,,,0.00,WUHU21623XXSP,2013-09-06 16:54:00,
2013-09-06 12:59:00,86.9,67.2,30.13,ESE,112,0.0,0.0,52,0.00,,,0.00,WUHU21623XXSP,2013-09-06 16:59:00,
2013-09-06 13:04:00,87.6,66.1,30.13,ESE,112,0.0,0.0,49,0.00,,,0.00,WUHU21623XXSP,2013-09-06 17:04:00,
2013-09-06 13:09:00,87.6,66.1,30.13,North,0,0.0,0.0,49,0.00,,,0.00,WUHU21623XXSP,2013-09-06 17:09:00,
2013-09-06 13:14:00,87.4,66.0,30.13,North,0,0.0,0.0,49,0.00,,,0.00,WUHU21623XXSP,2013-09-06 17:14:00,
2013-09-06 13:19:00,87.4,66.6,30.13,North,0,0.0,0.0,50,0.00,,,0.00,WUHU21623XXSP,2013-09-06 17:19:00,
2013-09-06 13:24:00,87.4,65.3,30.13,East,90,0.0,0.0,48,0.00,,,0.00,WUHU21623XXSP,2013-09-06 17:24:00,
2013-09-06 13:29:00,88.2,66.6,30.14,West,270,0.0,0.0,49,0.00,,,0.00,WUHU21623XXSP,2013-09-06 17:29:00,
2013-09-06 13:34:00,88.9,66.6,30.13,North,0,0.0,0.0,48,0.00,,,0.00,WUHU21623XXSP,2013-09-06 17:34:00,
2013-09-06 13:39:00,88.5,65.6,30.13,North,0,0.0,0.0,47,0.00,,,0.00,WUHU21623XXSP,2013-09-06 17:39:00,
2013-09-06 13:44:00,88.5,66.3,30.13,NNE,22,0.0,0.0,48,0.00,,,0.00,WUHU21623XXSP,2013-09-06 17:44:00,
2013-09-06 13:49:00,89.1,65.5,30.13,NNE,22,0.0,0.0,46,0.00,,,0.00,WUHU21623XXSP,2013-09-06 17:49:00,
2013-09-06 13:54:00,89.4,65.8,30.13,North,0,0.0,0.0,46,0.00,,,0.00,WUHU21623XXSP,2013-09-06 17:54:00,
2013-09-06 13:59:00,89.4,65.1,30.13,North,0,0.0,0.0,45,0.00,,,0.00,WUHU21623XXSP,2013-09-06 17:59:00,
2013-09-06 14:04:00,89.2,65.6,30.13,NNE,22,0.0,0.0,46,0.00,,,0.00,WUHU21623XXSP,2013-09-06 18:04:00,
2013-09-06 14:09:00,88.7,65.8,30.12,South,180,0.0,0.0,47,0.00,,,0.00,WUHU21623XXSP,2013-09-06 18:09:00,
2013-09-06 14:14:00,89.4,66.4,30.12,East,90,0.0,0.0,47,0.00,,,0.00,WUHU21623XXSP,2013-09-06 18:14:00,
2013-09-06 14:19:00,87.8,65.0,30.11,NNE,22,0.0,0.0,47,0.00,,,0.00,WUHU21623XXSP,2013-09-06 18:19:00,
2013-09-06 14:24:00,88.3,65.5,30.12,North,0,0.0,0.0,47,0.00,,,0.00,WUHU21623XXSP,2013-09-06 18:24:00,
2013-09-06 14:29:00,88.5,65.6,30.11,WNW,292,0.0,0.0,47,0.00,,,0.00,WUHU21623XXSP,2013-09-06 18:29:00,
2013-09-06 14:34:00,89.8,66.8,30.11,NNE,22,0.0,0.0,47,0.00,,,0.00,WUHU21623XXSP,2013-09-06 18:34:00,
2013-09-06 14:39:00,89.6,65.9,30.11,NNE,22,0.0,0.0,46,0.00,,,0.00,WUHU21623XXSP,2013-09-06 18:39:00,
2013-09-06 14:44:00,88.9,65.3,30.11,West,270,0.0,0.0,46,0.00,,,0.00,WUHU21623XXSP,2013-09-06 18:44:00,
2013-09-06 14:49:00,88.9,66.6,30.11,North,0,0.0,0.0,48,0.00,,,0.00,WUHU21623XXSP,2013-09-06 18:49:00,
2013-09-06 14:54:00,88.7,65.2,30.10,North,0,0.0,0.0,46,0.00,,,0.00,WUHU21623XXSP,2013-09-06 18:54:00,
2013-09-06 14:59:00,88.7,63.2,30.10,South,180,0.0,0.0,43,0.00,,,0.00,WUHU21623XXSP,2013-09-06 18:59:00,
2013-09-06 15:04:00,88.7,63.9,30.10,North,0,0.0,0.0,44,0.00,,,0.00,WUHU21623XXSP,2013-09-06 19:04:00,
2013-09-06 15:09:00,88.0,64.5,30.09,SSW,202,0.0,0.0,46,0.00,,,0.00,WUHU21623XXSP,2013-09-06 19:09:00,
2013-09-06 15:14:00,88.5,65.6,30.09,West,270,0.0,0.0,47,0.00,,,0.00,WUHU21623XXSP,2013-09-06 19:14:00,
2013-09-06 15:19:00,88.5,65.6,30.09,North,0,0.0,0.0,47,0.00,,,0.00,WUHU21623XXSP,2013-09-06 19:19:00,
2013-09-06 15:24:00,88.2,66.6,30.09,WNW,292,0.0,0.0,49,0.00,,,0.00,WUHU21623XXSP,2013-09-06 19:24:00,
2013-09-06 15:29:00,87.6,66.8,30.09,West,270,0.0,0.0,50,0.00,,,0.00,WUHU21623XXSP,2013-09-06 19:29:00,
2013-09-06 15:34:00,87.6,67.3,30.08,WNW,292,0.0,0.0,51,0.00,,,0.00,WUHU21623XXSP,2013-09-06 19:34:00,
2013-09-06 15:39:00,87.4,65.3,30.08,West,270,0.0,0.0,48,0.00,,,0.00,WUHU21623XXSP,2013-09-06 19:39:00,
2013-09-06 15:44:00,87.4,66.6,30.08,North,0,0.0,0.0,50,0.00,,,0.00,WUHU21623XXSP,2013-09-06 19:44:00,
2013-09-06 15:49:00,87.3,66.4,30.08,North,0,0.0,0.0,50,0.00,,,0.00,WUHU21623XXSP,2013-09-06 19:49:00,
2013-09-06 15:54:00,87.4,67.1,30.08,North,0,0.0,0.0,51,0.00,,,0.00,WUHU21623XXSP,2013-09-06 19:54:00,
2013-09-06 15:59:00,87.1,67.3,30.08,North,0,0.0,0.0,52,0.00,,,0.00,WUHU21623XXSP,2013-09-06 19:59:00,
2013-09-06 16:04:00,86.9,67.2,30.08,NNE,22,0.0,0.0,52,0.00,,,0.00,WUHU21623XXSP,2013-09-06 20:04:00,
2013-09-06 16:09:00,86.7,67.0,30.08,North,0,0.0,0.0,52,0.00,,,0.00,WUHU21623XXSP,2013-09-06 20:09:00,
2013-09-06 16:14:00,86.7,67.5,30.08,West,270,0.0,0.0,54,0.00,,,0.00,WUHU21623XXSP,2013-09-06 20:14:00,
2013-09-06 16:19:00,86.5,67.4,30.07,North,0,0.0,0.0,53,0.00,,,0.00,WUHU21623XXSP,2013-09-06 20:19:00,
2013-09-06 16:24:00,85.8,66.2,30.08,East,90,0.0,0.0,52,0.00,,,0.00,WUHU21623XXSP,2013-09-06 20:24:00,
2013-09-06 16:29:00,85.6,67.1,30.08,North,0,0.0,0.0,54,0.00,,,0.00,WUHU21623XXSP,2013-09-06 20:29:00,
2013-09-06 16:34:00,85.6,67.1,30.07,NNE,22,0.0,0.0,54,0.00,,,0.00,WUHU21623XXSP,2013-09-06 20:34:00,
2013-09-06 16:39:00,85.8,68.3,30.07,West,270,0.0,0.0,56,0.00,,,0.00,WUHU21623XXSP,2013-09-06 20:39:00,
2013-09-06 16:44:00,85.3,67.8,30.07,SSW,202,0.0,0.0,56,0.00,,,0.00,WUHU21623XXSP,2013-09-06 20:44:00,
2013-09-06 16:49:00,85.1,67.1,30.07,WNW,292,0.0,0.0,55,0.00,,,0.00,WUHU21623XXSP,2013-09-06 20:49:00,
2013-09-06 16:54:00,85.1,68.1,30.07,WNW,292,0.0,0.0,57,0.00,,,0.00,WUHU21623XXSP,2013-09-06 20:54:00,
2013-09-06 17:00:00,84.7,67.3,30.07,WNW,292,0.0,0.0,56,0.00,,,0.00,WUHU21623XXSP,2013-09-06 21:00:00,
2013-09-06 17:05:00,84.2,67.3,30.07,North,0,0.0,0.0,57,0.00,,,0.00,WUHU21623XXSP,2013-09-06 21:05:00,
2013-09-06 17:10:00,84.0,66.6,30.07,West,270,0.0,0.0,56,0.00,,,0.00,WUHU21623XXSP,2013-09-06 21:10:00,
2013-09-06 17:15:00,84.0,68.2,30.07,WNW,292,0.0,0.0,59,0.00,,,0.00,WUHU21623XXSP,2013-09-06 21:15:00,
2013-09-06 17:20:00,83.8,67.5,30.07,West,270,0.0,0.0,58,0.00,,,0.00,WUHU21623XXSP,2013-09-06 21:20:00,
2013-09-06 17:25:00,83.8,67.0,30.07,North,0,0.0,0.0,57,0.00,,,0.00,WUHU21623XXSP,2013-09-06 21:25:00,
2013-09-06 17:30:00,83.8,67.0,30.06,WNW,292,0.0,0.0,57,0.00,,,0.00,WUHU21623XXSP,2013-09-06 21:30:00,
2013-09-06 17:35:00,83.7,67.3,30.07,WNW,292,0.0,0.0,58,0.00,,,0.00,WUHU21623XXSP,2013-09-06 21:35:00,
2013-09-06 17:40:00,83.3,67.0,30.07,North,0,0.0,0.0,58,0.00,,,0.00,WUHU21623XXSP,2013-09-06 21:40:00,
2013-09-06 17:45:00,83.1,67.3,30.06,WNW,292,0.0,0.0,59,0.00,,,0.00,WUHU21623XXSP,2013-09-06 21:45:00,
2013-09-06 17:50:00,82.9,68.1,30.06,WNW,292,0.0,0.0,61,0.00,,,0.00,WUHU21623XXSP,2013-09-06 21:50:00,
2013-09-06 17:55:00,82.6,67.3,30.06,North,0,0.0,0.0,60,0.00,,,0.00,WUHU21623XXSP,2013-09-06 21:55:00,
2013-09-06 18:00:00,82.2,66.9,30.06,North,0,0.0,0.0,60,0.00,,,0.00,WUHU21623XXSP,2013-09-06 22:00:00,
2013-09-06 18:05:00,82.0,67.2,30.06,WNW,292,0.0,0.0,61,0.00,,,0.00,WUHU21623XXSP,2013-09-06 22:05:00,
2013-09-06 18:10:00,81.7,66.9,30.07,West,270,0.0,0.0,61,0.00,,,0.00,WUHU21623XXSP,2013-09-06 22:10:00,
2013-09-06 18:15:00,81.3,67.9,30.06,West,270,0.0,0.0,64,0.00,,,0.00,WUHU21623XXSP,2013-09-06 22:15:00,
2013-09-06 18:20:00,80.6,67.3,30.06,NNE,22,0.0,0.0,64,0.00,,,0.00,WUHU21623XXSP,2013-09-06 22:20:00,
2013-09-06 18:25:00,80.8,67.0,30.06,NNE,22,0.0,0.0,63,0.00,,,0.00,WUHU21623XXSP,2013-09-06 22:25:00,
2013-09-06 18:30:00,80.4,66.7,30.06,NNE,22,0.0,0.0,63,0.00,,,0.00,WUHU21623XXSP,2013-09-06 22:30:00,
2013-09-06 18:35:00,80.4,65.8,30.06,NNE,22,0.0,0.0,61,0.00,,,0.00,WUHU21623XXSP,2013-09-06 22:35:00,
2013-09-06 18:40:00,80.4,66.2,30.06,West,270,0.0,0.0,62,0.00,,,0.00,WUHU21623XXSP,2013-09-06 22:40:00,
2013-09-06 18:45:00,80.1,66.3,30.06,NNE,22,0.0,0.0,63,0.00,,,0.00,WUHU21623XXSP,2013-09-06 22:45:00,
2013-09-06 18:50:00,79.9,66.1,30.06,NNE,22,0.0,0.0,63,0.00,,,0.00,WUHU21623XXSP,2013-09-06 22:50:00,
2013-09-06 18:55:00,79.5,66.3,30.06,SSW,202,0.0,0.0,64,0.00,,,0.00,WUHU21623XXSP,2013-09-06 22:55:00,
2013-09-06 19:00:00,79.2,67.2,30.05,East,90,0.0,0.0,67,0.00,,,0.00,WUHU21623XXSP,2013-09-06 23:00:00,
2013-09-06 19:05:00,78.6,67.1,30.05,SSW,202,0.0,0.0,68,0.00,,,0.00,WUHU21623XXSP,2013-09-06 23:05:00,
2013-09-06 19:10:00,78.3,67.2,30.05,ESE,112,0.0,0.0,69,0.00,,,0.00,WUHU21623XXSP,2013-09-06 23:10:00,
2013-09-06 19:15:00,77.7,67.2,30.05,East,90,0.0,0.0,70,0.00,,,0.00,WUHU21623XXSP,2013-09-06 23:15:00,
2013-09-06 19:20:00,77.4,67.6,30.05,East,90,0.0,0.0,72,0.00,,,0.00,WUHU21623XXSP,2013-09-06 23:20:00,
2013-09-06 19:25:00,76.8,67.9,30.05,NNE,22,0.0,0.0,74,0.00,,,0.00,WUHU21623XXSP,2013-09-06 23:25:00,
2013-09-06 19:30:00,76.6,67.7,30.05,ESE,112,0.0,0.0,74,0.00,,,0.00,WUHU21623XXSP,2013-09-06 23:30:00,
2013-09-06 19:35:00,75.9,67.8,30.05,ESE,112,0.0,0.0,76,0.00,,,0.00,WUHU21623XXSP,2013-09-06 23:35:00,
2013-09-06 19:40:00,75.6,67.9,30.05,ESE,112,0.0,0.0,77,0.00,,,0.00,WUHU21623XXSP,2013-09-06 23:40:00,
2013-09-06 19:45:00,74.8,67.6,30.05,ESE,112,0.0,0.0,78,0.00,,,0.00,WUHU21623XXSP,2013-09-06 23:45:00,
2013-09-06 19:50:00,74.5,67.6,30.06,ESE,112,0.0,0.0,79,0.00,,,0.00,WUHU21623XXSP,2013-09-06 23:50:00,
2013-09-06 19:55:00,74.1,67.2,30.05,ESE,112,0.0,0.0,79,0.00,,,0.00,WUHU21623XXSP,2013-09-06 23:55:00,
2013-09-06 20:00:00,73.6,67.1,30.05,ESE,112,0.0,0.0,80,0.00,,,0.00,WUHU21623XXSP,2013-09-07 00:00:00,
2013-09-06 20:05:00,73.2,66.7,30.06,ESE,112,0.0,0.0,80,0.00,,,0.00,WUHU21623XXSP,2013-09-07 00:05:00,
2013-09-06 20:10:00,72.7,66.5,30.06,ESE,112,0.0,0.0,81,0.00,,,0.00,WUHU21623XXSP,2013-09-07 00:10:00,
2013-09-06 20:15:00,72.3,66.5,30.06,ESE,112,0.0,0.0,82,0.00,,,0.00,WUHU21623XXSP,2013-09-07 00:15:00,
2013-09-06 20:20:00,71.8,66.0,30.06,East,90,0.0,0.0,82,0.00,,,0.00,WUHU21623XXSP,2013-09-07 00:20:00,
2013-09-06 20:25:00,71.2,65.4,30.06,ESE,112,0.0,0.0,82,0.00,,,0.00,WUHU21623XXSP,2013-09-07 00:25:00,
2013-09-06 20:30:00,71.2,65.4,30.06,ESE,112,0.0,0.0,82,0.00,,,0.00,WUHU21623XXSP,2013-09-07 00:30:00,
2013-09-06 20:35:00,70.9,65.4,30.06,East,90,0.0,0.0,83,0.00,,,0.00,WUHU21623XXSP,2013-09-07 00:35:00,
2013-09-06 20:40:00,70.3,64.9,30.06,ESE,112,0.0,0.0,83,0.00,,,0.00,WUHU21623XXSP,2013-09-07 00:40:00,
2013-09-06 20:45:00,70.3,64.9,30.06,ESE,112,0.0,0.0,83,0.00,,,0.00,WUHU21623XXSP,2013-09-07 00:45:00,
2013-09-06 20:50:00,70.0,64.5,30.06,ESE,112,0.0,0.0,83,0.00,,,0.00,WUHU21623XXSP,2013-09-07 00:50:00,
2013-09-06 20:55:00,69.6,64.5,30.06,ESE,112,0.0,0.0,84,0.00,,,0.00,WUHU21623XXSP,2013-09-07 00:55:00,
2013-09-06 21:00:00,69.4,64.3,30.06,ESE,112,0.0,0.0,84,0.00,,,0.00,WUHU21623XXSP,2013-09-07 01:00:00,
2013-09-06 21:05:00,69.1,64.0,30.06,ESE,112,0.0,0.0,84,0.00,,,0.00,WUHU21623XXSP,2013-09-07 01:05:00,
2013-09-06 21:10:00,68.9,64.2,30.06,ESE,112,0.0,0.0,85,0.00,,,0.00,WUHU21623XXSP,2013-09-07 01:10:00,
2013-09-06 21:15:00,68.7,64.0,30.07,East,90,0.0,0.0,85,0.00,,,0.00,WUHU21623XXSP,2013-09-07 01:15:00,
2013-09-06 21:20:00,68.7,64.0,30.07,East,90,0.0,0.0,85,0.00,,,0.00,WUHU21623XXSP,2013-09-07 01:20:00,
2013-09-06 21:25:00,68.4,63.7,30.07,East,90,0.0,0.0,85,0.00,,,0.00,WUHU21623XXSP,2013-09-07 01:25:00,
2013-09-06 21:30:00,68.2,63.5,30.07,East,90,0.0,0.0,85,0.00,,,0.00,WUHU21623XXSP,2013-09-07 01:30:00,
2013-09-06 21:35:00,68.2,63.5,30.07,East,90,0.0,0.0,85,0.00,,,0.00,WUHU21623XXSP,2013-09-07 01:35:00,
2013-09-06 21:40:00,67.8,63.5,30.07,East,90,0.0,0.0,86,0.00,,,0.00,WUHU21623XXSP,2013-09-07 01:40:00,
2013-09-06 21:45:00,67.8,63.5,30.07,East,90,0.0,0.0,86,0.00,,,0.00,WUHU21623XXSP,2013-09-07 01:45:00,
2013-09-06 21:50:00,67.8,63.5,30.08,East,90,0.0,0.0,86,0.00,,,0.00,WUHU21623XXSP,2013-09-07 01:50:00,
2013-09-06 21:55:00,67.6,63.3,30.08,East,90,0.0,0.0,86,0.00,,,0.00,WUHU21623XXSP,2013-09-07 01:55:00,
2013-09-06 22:00:00,67.5,63.1,30.08,East,90,0.0,0.0,86,0.00,,,0.00,WUHU21623XXSP,2013-09-07 02:00:00,
2013-09-06 22:05:00,67.3,62.9,30.08,East,90,0.0,0.0,86,0.00,,,0.00,WUHU21623XXSP,2013-09-07 02:05:00,
2013-09-06 22:10:00,67.1,62.7,30.08,East,90,0.0,0.0,86,0.00,,,0.00,WUHU21623XXSP,2013-09-07 02:10:00,
2013-09-06 22:15:00,67.1,62.7,30.08,ESE,112,0.0,0.0,86,0.00,,,0.00,WUHU21623XXSP,2013-09-07 02:15:00,
2013-09-06 22:20:00,66.9,62.6,30.08,ESE,112,0.0,0.0,86,0.00,,,0.00,WUHU21623XXSP,2013-09-07 02:20:00,
2013-09-06 22:25:00,66.7,62.4,30.08,East,90,0.0,0.0,86,0.00,,,0.00,WUHU21623XXSP,2013-09-07 02:25:00,
2013-09-06 22:30:00,66.7,62.4,30.08,ESE,112,0.0,0.0,86,0.00,,,0.00,WUHU21623XXSP,2013-09-07 02:30:00,
2013-09-06 22:35:00,66.7,62.7,30.08,NNE,22,0.0,0.0,87,0.00,,,0.00,WUHU21623XXSP,2013-09-07 02:35:00,
2013-09-06 22:40:00,66.6,62.5,30.08,NNE,22,0.0,0.0,87,0.00,,,0.00,WUHU21623XXSP,2013-09-07 02:40:00,
2013-09-06 22:45:00,66.6,62.5,30.08,NNE,22,0.0,0.0,87,0.00,,,0.00,WUHU21623XXSP,2013-09-07 02:45:00,
2013-09-06 22:50:00,66.2,62.2,30.08,East,90,0.0,0.0,87,0.00,,,0.00,WUHU21623XXSP,2013-09-07 02:50:00,
2013-09-06 22:55:00,66.0,62.0,30.08,East,90,0.0,0.0,87,0.00,,,0.00,WUHU21623XXSP,2013-09-07 02:55:00,
2013-09-06 23:00:00,66.0,62.0,30.08,East,90,0.0,0.0,87,0.00,,,0.00,WUHU21623XXSP,2013-09-07 03:00:00,
2013-09-06 23:05:00,66.0,62.0,30.08,East,90,0.0,0.0,87,0.00,,,0.00,WUHU21623XXSP,2013-09-07 03:05:00,
2013-09-06 23:10:00,66.0,62.0,30.08,East,90,0.0,0.0,87,0.00,,,0.00,WUHU21623XXSP,2013-09-07 03:10:00,
2013-09-06 23:15:00,65.8,61.8,30.08,East,90,0.0,0.0,87,0.00,,,0.00,WUHU21623XXSP,2013-09-07 03:15:00,
2013-09-06 23:20:00,65.8,62.2,30.08,East,90,0.0,0.0,88,0.00,,,0.00,WUHU21623XXSP,2013-09-07 03:20:00,
2013-09-06 23:25:00,65.8,62.2,30.08,East,90,0.0,0.0,88,0.00,,,0.00,WUHU21623XXSP,2013-09-07 03:25:00,
2013-09-06 23:30:00,65.8,62.2,30.08,East,90,0.0,0.0,88,0.00,,,0.00,WUHU21623XXSP,2013-09-07 03:30:00,
2013-09-06 23:35:00,65.7,62.0,30.08,East,90,0.0,0.0,88,0.00,,,0.00,WUHU21623XXSP,2013-09-07 03:35:00,
2013-09-06 23:40:00,65.7,62.0,30.08,East,90,0.0,0.0,88,0.00,,,0.00,WUHU21623XXSP,2013-09-07 03:40:00,
2013-09-06 23:45:00,65.5,61.8,30.08,East,90,0.0,0.0,88,0.00,,,0.00,WUHU21623XXSP,2013-09-07 03:45:00,
2013-09-06 23:50:00,65.5,61.8,30.08,East,90,0.0,0.0,88,0.00,,,0.00,WUHU21623XXSP,2013-09-07 03:50:00,
2013-09-06 23:55:00,65.3,61.7,30.08,East,90,0.0,0.0,88,0.00,,,0.00,WUHU21623XXSP,2013-09-07 03:55:00,